Location: アルンシュタイン
(50.0000°N, 10.0000°E)
Time: 15:23:18
(UTC+02:00)

Vanguard 1 - Pass Details

Date: 13 September 2024
Orbit: 649 x 3825 km, 34.3° (Epoch: 02 October)

Event Time Altitude Azimuth Distance (km) Brightness Sun altitude
Rises 17:02:44 0° 248° (WSW) 4,303 14.8 23.4°
Reaches altitude 10° 17:07:16 10° 229° (SW) 2,816 14.0 22.8°
Maximum altitude 17:10:58 16° 193° (SSW) 2,060 12.4 22.2°
Drops below altitude 10° 17:13:59 10° 155° (SSE) 2,223 11.9 21.8°
Sets 17:16:56 0° 132° (SE) 2,995 12.3 21.3°
